GFSSE_925_thetae_273.txt.gz
Theta_e
348 349 341 338 344 347 345 343 342 341 340 340 339 340 340 341 339 338 337 336 337 338 340 337 336 336 337 337 333 331 332 333 336 339 341 344 328 327 329 328 328 347 338
346 350 340 341 344 345 345 345 345 344 344 341 339 339 338 337 336 336 337 339 341 343 344 344 345 344 341 340 339 335 333 330 329 329 332 340 345 336 333 335 336 348 334
345 349 348 344 344 344 343 344 343 342 342 340 340 339 337 335 333 332 333 334 336 340 342 343 343 342 341 341 344 341 336 333 331 329 327 334 343 345 343 335 336 337 336
344 348 349 347 346 344 343 341 341 342 343 339 336 333 332 334 338 339 340 341 345 346 345 347 347 346 343 341 339 338 338 335 332 328 334 336 335 342 339 340 341 339 337
343 345 350 347 345 342 341 342 341 338 337 337 340 341 342 344 344 344 344 344 345 346 346 344 341 338 337 336 336 336 338 340 340 339 340 339 339 340 335 333 337 342 341
343 346 346 341 340 343 343 342 341 343 344 345 348 348 346 344 344 344 345 345 344 345 346 345 342 340 340 340 340 339 336 335 335 343 342 343 342 339 335 335 332 339 347
342 343 341 343 343 343 344 343 345 346 345 343 341 340 340 341 341 340 340 340 339 339 338 338 338 337 336 338 340 340 340 340 344 342 340 343 342 343 341 341 330 335 337
341 343 345 341 342 342 343 345 341 339 338 336 335 334 334 335 336 336 334 335 335 334 334 334 334 334 334 333 334 336 336 337 337 340 340 339 343 343 343 342 334 338 338
340 341 341 344 342 343 341 339 336 335 334 331 329 328 328 328 329 328 330 330 331 331 331 331 331 331 331 332 332 333 334 336 337 336 337 343 344 344 341 338 339 337 338
339 339 341 342 343 343 342 336 335 333 331 328 324 322 324 327 323 323 322 317 315 317 319 321 323 325 328 330 332 331 332 334 336 337 334 345 342 342 338 340 341 338 339
339 341 342 344 347 345 342 337 336 333 331 328 327 322 324 324 323 322 321 318 319 319 319 319 319 318 318 323 328 330 329 331 334 334 334 341 342 341 338 339 337 340 340
341 343 342 348 347 345 341 341 339 336 333 329 326 325 324 325 323 321 321 320 320 320 321 321 321 321 322 323 322 325 328 327 330 332 332 336 335 337 337 338 338 334 339
342 343 345 348 347 345 343 342 339 336 333 328 325 324 325 324 323 322 321 321 321 320 321 321 321 322 322 322 321 321 321 321 322 325 328 332 332 332 335 337 337 336 334
343 344 347 348 349 346 343 341 338 334 331 327 324 324 323 322 322 322 322 321 321 321 321 321 321 322 321 321 320 320 320 320 320 321 324 327 328 327 328 335 336 337 333
345 346 348 348 348 345 342 338 335 333 329 325 324 324 322 321 322 322 322 321 321 321 320 321 321 320 320 322 322 323 323 322 321 321 322 323 323 325 325 324 334 337 333
346 347 347 347 347 344 339 336 333 330 326 324 324 323 322 321 323 322 321 320 320 319 319 320 320 320 321 321 322 322 325 326 326 327 328 327 329 330 329 322 333 335 333
347 347 347 344 342 339 337 333 332 327 324 323 323 322 321 321 322 322 320 319 319 318 318 319 319 320 320 321 322 323 324 324 325 327 328 329 332 329 326 326 332 334 333
347 344 341 340 339 337 334 332 329 325 323 322 322 320 320 321 321 320 319 318 317 316 317 318 319 319 319 320 321 322 322 324 326 327 327 327 329 330 328 328 329 330 328
342 340 336 334 334 334 332 330 327 325 323 322 320 319 321 320 320 320 318 317 315 316 318 318 319 319 319 318 318 319 321 322 323 324 325 326 325 325 323 321 321 323 323
341 335 333 333 333 332 330 327 324 323 322 320 319 320 320 320 319 319 316 315 314 316 316 318 318 318 319 319 319 317 318 320 321 321 322 323 321 320 320 320 317 317 317
337 335 333 332 333 331 327 324 324 324 322 319 320 319 319 318 318 317 314 313 314 314 315 316 318 317 316 317 319 320 317 317 320 320 320 321 320 319 318 317 318 318 316
339 334 332 332 330 328 325 325 324 322 319 318 319 319 318 316 317 315 314 313 314 313 313 313 314 315 315 315 315 317 319 318 316 316 318 319 318 316 315 315 315 315 316
335 333 332 332 329 326 326 324 322 320 319 320 320 318 316 314 315 315 314 314 313 312 312 312 312 312 313 312 312 314 317 317 314 315 315 317 317 316 315 314 314 314 314
335 334 333 330 328 327 326 323 322 321 320 320 318 317 316 314 313 314 314 314 313 312 312 311 312 311 311 310 309 309 310 310 311 314 313 312 314 313 313 312 312 312 311
335 333 332 329 327 326 323 323 323 320 321 318 318 317 316 314 313 313 313 314 314 312 312 312 312 312 309 308 306 306 306 307 307 308 310 308 307 310 307 308 308 307 307
334 331 329 327 326 325 323 323 321 321 319 318 317 317 315 314 313 313 313 314 313 314 312 312 312 311 310 308 307 306 306 307 307 307 308 308 306 306 305 305 305 305 306

GFSSE_925_thetae_276.txt.gz
Theta_e
348 345 331 337 340 339 339 339 338 338 339 341 341 339 338 337 336 337 339 341 342 345 346 346 345 342 341 339 336 332 330 329 330 334 337 342 336 328 330 326 338 348 340
349 343 333 340 343 342 342 343 342 340 339 339 340 340 339 339 338 337 337 337 339 343 344 345 346 346 345 344 343 338 334 332 329 327 327 333 342 339 333 334 342 342 335
348 340 345 342 343 343 344 344 340 339 339 340 339 337 334 332 332 335 338 342 345 346 347 348 348 347 346 345 341 339 338 334 331 328 326 324 335 345 343 341 336 335 335
349 348 349 345 344 344 343 338 342 342 342 338 336 335 337 340 341 342 342 344 346 346 346 345 343 340 338 337 338 338 338 338 337 335 330 335 335 343 341 341 339 338 337
350 350 347 347 344 341 341 342 339 337 338 342 344 344 345 345 344 345 346 345 345 346 347 346 344 342 340 341 340 339 337 335 334 334 340 343 343 342 337 334 335 341 343
347 350 347 344 340 343 340 338 340 343 344 345 345 344 347 343 342 342 342 341 340 339 339 339 339 338 337 338 339 340 339 339 339 344 342 343 344 341 337 334 334 333 344
347 347 344 342 342 342 342 343 345 344 343 340 338 337 337 337 337 337 337 337 337 336 336 336 335 335 335 335 335 336 337 338 338 339 342 343 342 341 338 339 342 333 332
342 344 346 342 341 342 343 342 340 338 336 334 332 331 329 328 329 327 330 329 331 331 331 332 332 332 332 333 333 334 335 336 337 337 337 341 343 342 343 343 341 335 332
343 345 344 345 343 342 340 337 335 334 331 328 325 325 326 323 326 323 320 316 315 314 315 316 318 318 321 327 331 333 333 332 334 335 336 342 342 341 340 338 336 336 336
341 340 343 344 344 342 338 336 335 332 330 327 323 323 324 328 324 325 322 320 320 319 320 321 320 320 319 320 323 326 330 328 329 334 336 343 342 341 339 338 337 337 337
339 341 343 343 345 343 339 336 335 334 332 330 328 325 326 326 324 323 322 321 321 321 321 322 322 321 323 324 323 323 327 327 331 330 336 341 342 341 339 337 338 337 338
340 343 344 347 345 343 341 340 339 336 332 328 326 326 325 325 324 323 323 322 322 322 323 322 322 324 323 322 322 322 323 322 321 322 325 334 334 335 337 338 339 337 336
347 349 349 347 345 344 343 342 339 336 332 327 325 325 324 325 323 323 323 323 322 322 322 322 323 323 322 321 322 321 321 321 321 321 325 330 328 328 328 331 335 338 337
345 350 349 348 348 346 343 342 339 334 330 327 326 324 323 324 322 323 323 322 322 322 321 321 321 321 321 322 323 323 325 324 323 321 321 323 326 327 326 325 326 334 336
345 349 349 348 347 346 343 340 337 333 329 326 325 324 322 323 322 324 322 321 321 320 320 321 320 321 321 323 324 323 324 325 326 328 329 330 329 329 328 328 329 332 333
344 349 349 348 348 345 342 339 335 331 326 326 326 323 323 323 324 323 321 320 319 319 319 320 320 321 321 323 321 323 324 325 327 329 329 329 328 328 329 330 330 331 334
346 348 348 348 345 342 339 336 332 327 325 324 324 322 322 323 323 321 321 319 318 317 319 319 321 320 321 321 321 322 323 325 326 326 327 327 328 328 329 329 330 330 331
349 349 346 343 341 340 335 333 330 326 324 323 322 322 322 322 322 321 319 317 316 318 319 318 320 320 319 319 319 320 322 322 324 325 324 325 322 321 322 322 324 325 323
346 344 342 341 340 336 333 331 328 324 324 322 321 322 322 321 321 321 317 315 317 318 318 319 318 319 320 320 320 318 320 322 322 323 322 322 322 321 318 319 319 318 318
344 341 339 336 335 334 332 329 326 324 323 321 321 321 321 320 319 318 315 315 315 316 316 316 319 317 318 318 320 320 319 321 320 320 321 321 319 318 320 317 316 317 316
343 340 336 337 335 332 330 327 325 325 322 321 321 321 319 318 318 316 314 314 316 314 314 314 314 316 317 315 317 317 318 319 321 320 319 318 318 316 316 317 317 317 317
339 337 336 335 333 332 328 327 326 324 322 321 321 320 318 317 317 315 315 314 313 314 312 313 314 311 315 313 313 315 321 319 317 317 319 318 317 316 315 315 314 314 316
339 338 336 336 333 330 327 326 323 321 319 321 321 319 316 316 315 315 315 314 313 313 314 312 312 314 312 310 311 312 316 314 310 316 318 315 315 315 315 315 313 313 312
341 337 335 334 332 329 326 324 323 321 322 322 320 318 316 315 314 315 315 314 314 313 313 313 312 312 309 309 307 308 308 308 310 312 313 313 316 314 312 309 308 308 308
339 337 336 333 330 328 325 324 322 325 321 319 319 318 316 315 314 314 315 315 315 313 313 312 312 311 309 309 308 308 308 308 308 311 310 309 307 306 306 306 305 305 306
338 337 334 332 329 327 325 326 323 324 321 320 319 318 317 315 314 314 314 314 314 315 313 312 313 311 309 309 310 310 308 308 309 309 309 309 309 309 306 306 307 306 306

GFSSE_925_thetae_279.txt.gz
Theta_e
345 342 335 336 337 335 334 334 335 336 336 336 337 337 337 337 337 336 337 339 341 343 346 346 345 343 339 338 334 332 330 328 326 326 331 336 342 330 330 331 346 344 337
342 341 334 334 335 337 339 339 338 337 336 338 339 337 334 333 333 335 340 343 345 346 346 347 346 344 341 340 337 334 332 329 328 326 325 325 333 343 333 333 342 336 334
340 339 336 339 342 343 343 338 336 335 336 336 333 332 335 339 340 340 342 344 345 346 346 345 345 345 344 343 340 337 337 337 336 335 329 327 327 336 343 336 336 335 333
343 341 343 345 343 343 337 339 341 336 333 333 335 341 344 344 345 346 346 345 344 346 345 344 342 338 338 339 339 338 338 335 333 331 333 336 342 342 340 340 339 338 337
347 345 346 343 343 338 340 337 334 338 342 344 344 344 343 343 343 343 342 341 340 339 339 339 338 338 337 337 338 338 338 338 338 338 341 342 342 345 343 338 334 333 337
347 345 345 342 341 340 334 337 343 343 343 343 342 343 338 340 339 338 337 337 337 336 336 336 336 336 335 335 335 335 336 336 336 336 337 339 338 345 340 336 337 335 334
347 345 341 340 340 340 344 343 342 341 339 336 335 333 331 331 330 330 328 327 328 330 330 331 331 331 332 333 333 334 334 335 335 335 336 336 342 343 339 339 337 336 332
343 339 342 340 340 340 338 340 338 335 334 332 329 325 323 324 324 322 319 318 317 316 315 316 318 318 316 317 323 327 331 331 328 329 332 335 342 342 340 333 336 338 333
341 343 341 341 342 338 339 336 334 333 329 324 323 325 326 325 325 324 322 320 320 320 321 321 321 321 321 323 323 324 325 328 327 330 331 334 341 342 339 333 338 337 336
343 341 341 340 336 338 336 335 333 330 328 325 325 325 327 325 324 323 323 321 321 321 322 322 321 322 324 322 322 322 323 325 324 321 327 338 341 339 339 339 338 338 336
342 343 339 337 337 338 337 335 334 332 329 327 326 325 325 325 323 323 323 323 322 322 324 322 324 323 321 321 320 320 320 321 321 321 330 334 336 337 338 338 338 337 336
342 343 342 343 341 339 338 338 336 334 330 325 326 325 326 325 322 323 322 323 322 322 321 322 322 321 321 321 322 324 324 323 322 322 325 329 328 328 330 331 335 338 336
343 342 344 344 342 340 340 339 336 332 328 326 323 324 324 324 321 323 322 321 321 321 320 321 320 321 322 324 323 323 325 325 325 329 332 330 329 332 333 327 326 332 335
344 344 346 344 342 341 342 340 335 331 327 326 325 320 323 321 323 323 321 321 320 319 319 321 320 321 322 323 323 323 325 326 325 328 330 332 329 330 332 333 329 329 334
349 348 346 347 344 344 340 336 333 330 326 325 324 319 322 321 323 324 320 319 319 318 319 320 321 320 321 321 321 323 323 324 325 327 328 331 332 332 333 335 335 331 334
349 348 348 347 346 344 341 337 332 330 326 325 323 320 320 322 321 322 320 319 317 318 320 319 320 320 320 320 321 322 322 324 325 325 326 327 328 330 332 331 332 334 331
349 349 348 347 347 345 339 336 332 326 325 324 322 321 321 321 321 319 319 315 317 320 318 319 319 320 320 318 320 322 322 324 323 323 321 320 323 326 328 328 327 327 326
348 349 348 347 345 342 337 332 327 325 324 323 322 321 321 320 321 319 314 316 317 317 318 318 318 319 319 319 319 320 322 323 321 321 319 320 319 319 323 324 324 324 324
348 348 347 345 343 340 335 330 327 324 323 321 321 321 321 319 320 316 314 315 315 316 316 317 319 318 317 317 319 318 318 322 321 321 319 319 318 317 317 320 321 321 321
347 346 344 342 341 336 332 329 325 324 322 321 321 321 319 318 317 314 314 315 313 311 313 314 315 316 314 312 315 316 319 319 320 320 319 319 318 317 316 317 317 319 318
343 342 341 340 337 333 331 327 324 323 321 321 320 319 318 318 316 315 313 314 313 311 312 313 312 313 313 311 309 314 319 321 320 317 316 317 315 315 316 314 315 317 319
341 339 338 336 335 333 330 326 325 323 321 321 320 318 317 317 315 315 314 314 315 313 311 311 312 310 311 309 310 312 311 316 307 318 317 316 315 315 314 314 314 315 315
339 338 337 336 335 332 328 329 326 323 321 320 318 316 316 315 315 314 313 313 312 312 312 311 310 309 309 306 308 308 308 306 307 317 317 316 315 314 314 312 312 311 314
338 337 336 335 333 332 330 324 322 320 320 321 318 315 315 314 315 315 314 314 313 312 312 312 310 308 308 310 308 307 309 308 305 305 308 312 313 311 309 307 306 306 306
338 337 336 335 334 331 326 325 322 319 322 322 317 316 314 314 314 314 315 315 314 313 312 312 310 308 308 309 310 309 307 307 307 306 304 306 307 307 306 305 306 305 306
337 336 336 335 332 330 326 323 321 322 320 318 317 316 314 314 314 314 315 314 314 312 313 312 312 307 308 308 309 309 310 307 307 306 304 305 305 308 306 306 307 306 306

GFSSE_925_thetae_282.txt.gz
Theta_e
344 345 340 335 335 334 334 335 335 334 333 333 333 333 332 331 330 332 336 340 341 342 343 343 342 340 339 337 333 330 329 327 327 327 329 334 342 334 331 347 344 342 338
344 344 337 335 335 337 337 335 333 332 333 334 332 330 332 337 340 341 342 342 343 345 343 344 344 342 342 342 340 337 336 336 334 332 330 327 327 336 335 338 345 337 336
345 344 342 340 340 339 336 333 332 333 333 330 333 339 341 342 342 345 346 345 345 345 346 346 344 343 343 343 339 337 337 335 333 333 334 335 334 336 338 336 337 334 331
343 343 344 343 342 338 334 333 332 331 332 338 344 345 345 345 345 344 342 340 340 339 339 340 338 338 337 337 339 338 337 337 337 337 339 341 342 342 345 340 338 337 336
343 343 346 342 340 336 334 331 335 341 343 344 343 342 341 341 340 339 338 337 336 336 336 336 336 335 335 335 335 335 335 335 335 336 336 337 338 339 344 340 339 338 338
345 346 344 341 337 334 332 342 343 343 342 341 337 336 336 334 332 331 325 326 327 328 328 327 325 324 327 330 333 333 334 334 334 333 333 334 337 342 343 341 335 337 339
346 344 344 339 335 336 343 341 340 340 337 334 331 326 327 322 322 319 319 319 317 317 316 319 320 319 318 318 320 323 324 329 330 327 327 330 335 342 344 339 338 336 338
344 343 341 340 343 343 339 339 337 334 332 329 324 323 323 324 323 322 321 320 320 321 321 321 321 322 323 323 323 322 323 326 326 322 322 329 338 342 341 339 337 339 336
342 340 341 339 337 337 339 335 333 329 325 324 325 325 324 324 322 324 321 321 321 323 322 322 325 325 322 322 321 321 321 321 321 321 323 338 338 342 340 336 328 335 337
341 340 339 338 335 337 335 334 330 325 323 326 326 326 325 323 323 323 323 322 323 323 322 324 322 322 320 320 321 322 321 322 321 327 337 337 338 339 337 338 337 338 337
342 339 338 332 336 336 335 332 331 329 327 326 325 325 325 323 323 323 323 322 322 321 321 322 321 320 321 322 324 325 324 324 323 322 333 333 334 336 336 336 336 336 335
341 339 335 334 337 337 334 334 332 329 326 325 324 325 325 323 321 322 322 321 321 320 320 319 321 321 323 322 322 324 324 325 329 333 332 328 328 329 329 328 331 331 333
337 337 335 336 338 337 335 334 332 328 326 324 323 323 324 321 322 322 321 320 319 318 319 320 321 323 322 322 322 323 323 323 327 329 332 330 329 332 330 329 328 328 332
342 339 342 340 338 337 337 335 332 328 326 326 321 321 321 322 323 320 320 319 318 318 319 320 321 321 321 321 322 323 323 324 326 328 331 331 332 333 335 335 332 332 331
342 341 343 342 340 339 338 337 332 326 326 326 320 317 320 322 322 320 319 318 317 319 319 320 321 319 319 320 322 321 322 323 324 326 328 328 329 331 332 333 333 331 332
341 342 344 343 341 341 340 334 329 326 326 325 321 317 321 321 321 319 317 316 318 318 319 319 320 319 320 321 322 322 322 322 321 320 323 326 328 328 329 330 329 329 328
343 344 345 344 341 337 334 331 329 327 325 324 321 319 321 320 319 316 316 318 318 318 318 318 318 319 319 320 322 323 321 320 319 319 319 319 324 326 326 326 326 326 325
346 346 347 344 342 341 338 333 327 325 324 322 321 319 320 320 318 314 316 316 317 317 317 317 318 317 314 319 319 322 322 320 319 318 318 318 317 318 322 323 324 325 325
348 346 347 346 345 342 337 329 326 324 323 321 321 320 319 319 315 314 314 313 311 313 317 317 317 315 311 315 318 319 322 321 319 318 317 316 316 316 317 320 320 320 320
347 347 346 345 344 343 333 326 324 323 321 321 321 320 318 317 314 314 314 313 310 311 313 314 316 313 311 309 313 318 321 321 320 318 317 316 315 314 314 314 318 319 319
346 346 346 344 343 340 331 325 323 322 321 321 320 319 318 316 314 313 314 312 310 311 311 310 313 311 308 308 310 316 320 319 317 317 316 315 314 313 313 313 315 315 316
343 343 343 343 341 335 330 327 324 322 321 320 319 317 317 315 314 313 313 313 312 310 310 309 308 307 307 308 308 310 310 313 316 317 315 315 314 314 314 314 314 313 313
341 340 342 342 338 334 331 326 323 321 321 319 317 316 316 314 314 313 312 311 311 310 310 309 307 307 307 307 308 308 303 303 305 311 313 315 315 314 313 313 313 310 308
338 336 336 338 335 332 330 325 324 321 320 319 316 315 315 314 313 313 314 313 312 311 311 308 307 308 308 308 307 306 307 306 303 304 306 307 313 311 309 311 309 307 306
338 337 342 336 333 331 328 328 326 322 320 319 316 315 314 314 314 313 314 314 312 312 311 310 307 308 309 308 308 307 306 306 306 303 303 304 307 307 306 305 308 306 306
339 338 336 335 333 331 329 325 324 321 320 319 316 314 313 314 314 314 314 313 313 312 312 312 308 306 307 308 308 308 308 306 305 306 302 302 304 307 307 307 306 306 306

GFSSE_925_thetae_285.txt.gz
Theta_e
344 344 349 350 343 335 333 333 332 331 331 330 330 328 328 331 336 340 342 342 344 345 346 346 346 344 345 345 343 339 338 337 336 336 334 335 339 330 339 345 344 341 339
343 344 346 346 344 337 334 332 331 330 331 329 328 333 337 338 340 343 344 344 345 345 344 345 345 344 344 343 339 337 336 336 337 338 341 339 332 337 333 344 344 341 340
343 343 343 345 343 336 334 332 330 331 328 330 338 340 342 345 345 345 343 343 344 342 341 344 343 340 340 343 345 341 338 337 338 342 340 338 338 337 336 336 343 337 334
343 343 344 345 341 335 331 329 330 328 332 341 345 346 345 344 342 340 339 338 340 343 342 342 339 338 337 336 336 335 335 335 336 337 335 337 338 339 342 343 338 337 334
343 343 345 342 338 333 331 329 330 337 343 344 342 341 340 339 337 334 333 333 332 332 331 329 327 327 329 331 332 333 333 334 335 332 331 333 336 339 341 345 341 338 337
343 343 345 341 337 334 330 336 341 345 342 341 338 337 334 329 319 318 317 315 316 317 320 323 325 325 323 322 322 323 324 328 329 327 327 329 334 340 342 340 340 337 336
344 345 344 339 334 331 340 346 344 341 340 335 330 328 322 320 321 320 320 320 321 321 324 328 326 325 323 322 321 322 325 326 323 321 321 329 333 341 342 341 339 337 337
344 344 341 337 331 341 341 340 340 336 332 326 323 323 323 323 323 321 321 321 322 321 323 328 323 322 321 321 321 321 322 326 321 325 330 337 334 342 343 341 338 337 337
344 343 339 341 343 340 339 337 334 330 326 325 325 324 324 323 323 323 322 323 323 325 323 322 321 322 321 321 323 321 321 321 326 336 336 336 339 342 341 337 330 336 336
343 338 339 337 339 338 337 333 328 323 324 326 325 326 323 323 323 323 322 323 323 323 323 321 323 321 322 324 324 324 323 322 321 331 335 338 338 338 337 337 337 337 336
341 340 336 335 335 337 334 330 325 325 326 325 325 325 324 322 322 323 323 321 321 321 320 321 322 322 322 321 323 324 324 325 324 327 329 329 333 335 334 334 333 333 333
343 340 338 333 337 335 333 330 329 328 326 325 324 325 324 322 322 322 321 320 318 319 319 320 322 322 321 321 322 322 323 325 328 329 330 328 331 334 331 326 326 328 329
338 339 338 334 336 335 333 331 330 326 325 324 323 323 322 321 321 321 320 318 318 319 320 321 321 321 321 321 321 322 323 325 327 328 331 332 334 335 335 333 330 331 331
340 337 334 334 336 335 333 333 330 327 325 324 320 321 319 322 321 319 319 317 318 319 320 321 320 321 321 320 321 321 323 327 328 329 330 331 330 331 332 334 334 334 333
340 335 332 334 337 335 334 334 330 327 326 324 319 318 320 322 320 319 318 317 318 318 319 320 319 320 321 321 321 320 321 322 324 326 328 329 329 329 330 331 331 332 330
338 337 337 337 338 336 336 334 331 327 326 323 319 317 321 321 319 316 316 317 318 318 318 319 319 319 321 322 321 320 319 319 319 321 324 326 326 327 327 328 329 328 327
339 338 341 340 339 338 338 336 332 327 325 322 319 318 321 319 317 315 317 317 317 317 317 318 318 318 319 322 322 320 318 318 318 318 318 318 320 323 325 326 326 325 326
340 340 342 341 341 340 339 335 329 326 324 322 320 318 320 319 316 314 315 314 315 316 317 317 316 313 316 319 322 320 319 318 317 317 316 316 317 317 320 322 322 322 323
341 342 343 343 341 339 333 329 328 325 323 322 320 318 318 318 315 314 313 312 310 312 316 316 313 311 311 315 318 321 320 319 317 316 315 315 315 314 316 321 320 320 321
343 343 343 342 337 333 333 330 326 323 322 321 320 319 318 316 314 314 313 311 310 313 314 316 311 310 308 309 314 321 321 319 318 316 315 314 313 314 314 315 317 318 317
345 344 342 339 338 338 331 326 324 322 321 321 320 319 317 315 313 314 313 310 309 309 310 313 308 308 307 308 314 319 319 314 317 317 315 315 314 314 314 314 313 314 311
345 344 342 339 337 337 332 325 323 322 321 320 319 318 317 315 313 313 313 311 309 309 308 307 306 307 307 307 310 313 312 308 316 315 314 314 314 314 313 312 312 312 306
344 342 339 335 332 327 326 326 323 321 320 318 317 316 316 314 313 312 311 310 309 309 308 307 306 307 307 306 307 308 301 302 303 306 308 315 314 314 313 313 313 310 306
339 339 340 334 334 330 326 324 322 320 319 319 317 316 314 313 313 312 312 312 311 310 307 307 308 307 306 306 306 306 306 305 302 303 306 307 306 311 311 310 311 310 307
336 340 337 335 331 330 327 323 321 321 320 319 316 315 314 313 313 313 313 312 311 311 310 306 308 308 307 307 306 306 305 306 305 302 301 304 306 306 306 306 309 307 306
339 339 337 330 328 329 328 325 323 322 320 318 315 315 314 313 313 313 314 313 312 311 311 308 306 307 308 308 307 307 307 306 306 305 301 302 302 307 307 306 306 307 307

GFSSE_925_thetae_288.txt.gz
Theta_e
345 346 346 347 348 338 329 329 328 328 329 329 328 329 333 337 340 342 341 341 341 342 343 344 344 344 345 345 343 340 339 337 335 333 332 335 336 329 341 342 345 343 341
344 347 347 348 346 340 331 329 327 328 328 327 331 336 337 342 345 345 344 344 345 345 343 343 344 343 344 345 346 346 344 342 342 341 339 333 331 338 332 341 341 343 339
343 345 346 345 341 334 331 329 328 328 327 334 338 342 345 346 344 342 341 340 340 342 343 342 343 342 341 341 339 337 337 337 339 341 336 336 334 331 331 337 337 344 338
343 344 344 345 342 334 330 328 328 327 336 343 346 346 344 342 339 337 337 339 342 341 341 339 337 335 336 335 335 334 334 335 337 334 333 335 338 339 340 342 339 338 335
343 343 344 343 338 333 330 328 329 337 345 345 344 344 338 335 327 323 323 325 331 331 330 331 331 331 331 326 324 325 327 330 332 328 327 330 334 337 339 340 342 340 337
342 342 344 341 336 331 328 330 339 345 344 341 339 336 329 319 320 321 321 323 328 330 331 330 327 325 328 329 330 330 326 327 325 321 322 326 331 335 341 341 342 340 336
342 343 343 340 335 329 332 342 344 342 338 334 331 324 320 321 321 321 324 326 328 329 330 330 328 328 328 326 322 321 325 323 323 323 327 331 331 341 341 340 339 339 337
342 343 344 337 331 333 345 343 340 337 333 325 324 324 323 323 322 322 322 327 330 327 328 327 327 326 322 321 320 321 321 323 329 332 333 334 338 341 343 342 340 338 338
343 343 341 336 331 340 339 339 337 333 326 325 324 324 323 323 323 323 323 328 325 326 327 323 321 322 326 324 323 322 321 321 327 333 335 338 341 341 339 337 335 333 336
343 342 338 334 341 339 339 337 331 326 324 324 326 325 323 322 323 323 323 324 325 326 323 322 322 322 323 322 324 324 323 322 326 331 335 337 337 338 337 336 337 336 335
344 342 339 339 339 339 336 331 324 325 326 326 325 325 323 322 322 323 322 320 319 320 321 322 322 321 320 321 322 324 324 326 326 328 329 331 334 335 332 329 330 331 331
343 342 339 336 336 338 333 327 325 327 326 324 324 324 323 321 321 321 319 317 318 319 321 321 321 321 320 319 321 321 325 326 324 327 333 332 335 336 336 330 330 330 329
342 343 338 335 336 335 332 329 329 327 325 324 323 323 321 321 321 320 319 317 318 320 321 320 320 320 319 320 321 324 327 327 328 329 331 332 332 333 334 335 335 335 335
340 339 336 336 337 334 332 331 331 327 325 323 321 321 320 321 320 319 318 317 318 319 320 320 320 321 320 319 319 322 324 326 327 328 330 330 331 331 332 332 333 332 333
339 336 336 334 336 335 333 332 330 327 325 322 319 319 320 321 320 319 317 317 318 319 320 318 320 321 321 318 317 318 320 322 324 326 327 328 329 329 329 330 330 330 330
337 337 335 334 336 335 334 333 331 327 326 323 318 319 320 320 319 316 316 317 317 318 319 318 318 321 321 319 318 317 317 317 319 319 319 324 326 327 327 327 327 327 327
334 335 335 333 336 336 335 334 332 327 326 323 319 320 319 318 317 315 316 317 317 317 317 317 317 320 321 320 319 317 317 316 316 316 316 317 320 323 323 323 324 324 324
337 336 337 334 336 337 335 334 332 327 325 321 319 319 319 318 315 314 314 313 314 316 316 317 313 316 320 321 320 318 317 316 316 315 315 316 316 318 321 321 322 322 322
340 335 337 336 336 337 337 335 332 326 324 321 319 318 319 317 314 313 312 311 308 312 316 314 311 311 315 318 321 319 318 316 315 314 314 314 313 312 313 318 318 317 315
340 338 337 340 339 339 337 335 330 325 322 321 320 318 317 316 314 313 312 309 309 313 315 313 310 309 308 313 319 320 319 318 316 315 314 313 313 312 311 314 313 310 310
339 340 340 340 337 337 334 327 324 323 321 320 320 318 316 315 313 313 312 309 308 311 313 311 310 307 306 312 319 318 313 317 317 316 315 314 313 312 311 310 310 305 306
342 342 338 335 331 327 325 324 322 320 320 320 319 317 315 314 313 312 312 309 308 308 307 307 307 307 306 308 314 316 316 312 314 314 314 313 314 313 312 310 310 308 306
342 339 337 334 330 327 325 326 325 321 320 317 318 317 315 314 313 312 311 309 308 308 307 306 306 306 306 306 311 311 307 308 304 305 309 311 311 313 312 311 310 308 307
336 336 338 337 338 333 328 328 325 322 319 318 317 315 314 313 312 311 311 310 309 307 306 307 306 306 306 305 305 305 305 305 306 307 305 306 306 311 311 305 309 310 309
338 341 341 338 333 332 331 329 329 322 321 319 317 315 313 313 312 312 312 311 310 308 306 307 307 306 306 306 306 305 305 306 305 304 307 305 306 306 306 306 306 309 308
342 340 339 338 332 331 328 327 327 327 322 319 317 315 313 312 312 312 312 312 311 310 307 306 307 307 307 307 306 306 306 306 305 305 305 304 303 305 306 307 306 306 307

GFSSE_925_thetae_291.txt.gz
Theta_e
346 348 346 346 347 345 343 337 332 330 330 330 330 333 340 344 344 344 343 344 343 344 345 345 344 344 345 345 345 345 343 340 336 333 333 335 335 328 337 339 341 346 340
347 347 345 346 346 343 337 335 330 329 328 332 339 342 345 346 345 343 343 344 342 342 343 343 343 343 342 342 341 341 339 338 339 340 337 332 332 337 332 333 339 347 339
347 348 347 346 346 344 335 329 329 329 335 339 343 346 346 343 344 342 341 342 342 342 341 340 339 339 339 337 336 335 335 335 337 337 334 337 336 332 331 335 336 340 340
348 348 346 344 344 334 329 329 327 334 342 346 348 345 342 338 336 334 335 337 337 335 333 333 333 331 331 330 329 330 331 333 335 332 334 334 336 336 339 341 340 339 339
346 346 346 345 338 332 330 327 331 343 345 344 341 340 333 322 319 320 323 330 331 332 332 332 332 331 331 332 328 326 324 327 330 329 329 330 334 336 338 338 342 342 339
345 345 346 343 338 332 329 330 343 345 343 341 337 330 322 323 324 325 328 330 331 331 332 332 330 329 328 325 322 324 329 326 324 329 330 332 333 334 338 341 341 344 339
343 345 345 343 337 332 333 343 345 341 336 333 327 324 323 322 322 323 327 331 331 330 330 329 329 325 321 321 321 321 321 324 329 332 333 335 342 342 341 341 341 341 339
343 345 345 342 333 333 343 345 341 337 330 326 324 323 323 323 322 322 329 331 330 329 328 325 327 329 324 323 322 321 321 322 330 332 337 340 342 341 341 341 340 339 338
343 344 345 343 341 344 344 340 337 332 325 323 323 323 323 322 323 323 329 328 328 324 322 324 328 326 322 322 323 323 322 322 329 332 335 339 339 341 338 337 336 335 336
343 344 345 341 342 343 344 337 333 327 325 326 325 323 322 322 324 323 325 324 322 320 328 323 322 320 319 321 323 324 323 326 328 331 334 336 336 338 336 335 335 334 334
345 345 343 341 343 343 342 337 329 325 325 325 326 324 323 326 328 326 321 318 318 324 327 321 320 319 319 321 322 324 326 327 328 329 332 336 337 337 337 335 331 328 330
343 345 343 343 342 342 337 334 331 328 326 327 325 323 323 323 323 322 318 317 319 322 321 320 319 319 322 323 325 327 327 327 328 329 331 333 335 335 336 336 336 334 334
343 343 341 342 342 340 335 330 329 328 325 324 323 323 321 320 320 319 319 320 321 321 322 322 321 321 321 323 326 327 327 327 327 329 331 332 333 333 333 333 333 333 333
342 343 342 340 340 339 335 331 330 327 325 323 322 321 320 321 319 319 319 318 320 322 322 322 322 322 321 321 323 324 325 326 328 329 330 330 331 331 332 331 331 331 331
343 342 340 339 339 338 334 332 330 326 325 323 320 319 320 320 319 318 316 317 319 321 321 322 323 322 320 319 319 319 320 322 323 324 327 328 328 329 329 329 329 330 329
343 341 339 339 339 337 335 332 330 327 325 322 319 319 320 319 317 315 316 317 317 318 318 320 323 323 321 319 319 319 319 319 319 320 321 324 325 325 326 327 327 326 326
343 340 340 340 339 337 335 332 330 326 325 322 319 319 319 318 315 315 317 317 317 317 318 318 321 323 322 321 320 319 319 319 318 319 319 320 321 322 323 324 324 324 323
342 340 339 339 338 338 335 333 329 326 324 321 319 319 318 317 315 314 314 314 314 316 318 316 319 321 322 322 321 320 318 317 317 318 317 316 316 317 320 321 319 317 316
342 340 339 339 338 338 335 333 330 325 323 320 319 320 318 316 314 312 313 309 308 315 317 315 314 317 321 322 322 321 319 318 316 316 316 315 314 314 316 314 312 312 312
342 341 339 339 338 335 335 333 328 324 321 321 321 320 317 315 313 312 310 307 310 315 317 314 311 310 313 319 321 322 321 319 318 317 316 315 315 314 313 312 310 310 311
342 341 341 337 335 335 334 331 326 322 321 320 319 317 315 314 313 312 310 309 309 313 315 311 311 311 310 315 321 320 320 319 318 317 317 316 315 314 313 312 311 310 309
342 342 339 334 331 331 330 329 325 322 322 321 318 316 314 313 313 311 310 309 308 310 310 309 309 311 310 313 320 320 320 318 317 314 315 316 316 315 313 313 312 312 311
342 340 332 331 334 330 328 328 325 322 321 320 318 316 315 313 312 311 309 308 307 309 310 307 307 309 310 309 312 318 320 318 316 310 312 312 312 315 315 313 313 313 313
337 336 336 338 335 327 331 331 329 325 323 324 319 317 314 313 312 311 310 309 307 308 307 308 307 308 310 310 309 308 309 312 314 313 310 309 309 312 312 308 308 312 313
338 337 338 338 332 331 333 331 326 327 324 324 318 316 314 312 312 311 311 310 309 308 307 307 307 308 309 309 309 309 309 309 309 310 310 309 309 309 309 309 309 309 312
341 341 340 337 336 333 332 330 327 327 323 321 317 316 314 313 312 311 312 311 310 308 306 308 306 306 308 309 309 309 308 309 309 309 309 309 309 308 307 308 308 308 309